Time,TemperatureF,DewpointF,PressureIn,WindDirection,WindDirectionDegrees,WindSpeedMPH,WindSpeedGustMPH,Humidity,HourlyPrecipIn,Conditions,Clouds,dailyrainin,SoftwareType,DateUTC
2013-01-09 00:11:00,36.1,31.0,30.14,West,271,4.0,9.0,81,0.00,,,0.00,weatherlink.com 1.10,2013-01-09 06:11:00,
2013-01-09 00:26:00,35.4,30.0,30.15,West,267,5.0,8.0,82,0.00,,,0.00,weatherlink.com 1.10,2013-01-09 06:26:00,
2013-01-09 00:41:00,35.3,30.0,30.16,West,259,5.0,7.0,82,0.00,,,0.00,weatherlink.com 1.10,2013-01-09 06:41:00,
2013-01-09 00:56:00,35.1,30.0,30.17,WSW,249,5.0,8.0,83,0.00,,,0.00,weatherlink.com 1.10,2013-01-09 06:56:00,
2013-01-09 01:11:00,36.1,31.0,30.18,West,277,5.0,8.0,81,0.00,,,0.00,weatherlink.com 1.10,2013-01-09 07:11:00,
2013-01-09 01:26:00,36.5,31.0,30.19,West,269,4.0,8.0,81,0.00,,,0.00,weatherlink.com 1.10,2013-01-09 07:26:00,
2013-01-09 01:41:00,36.5,31.0,30.19,West,270,3.0,8.0,80,0.00,,,0.00,weatherlink.com 1.10,2013-01-09 07:41:00,
2013-01-09 01:56:00,36.4,31.0,30.20,WSW,252,3.0,8.0,80,0.00,,,0.00,weatherlink.com 1.10,2013-01-09 07:56:00,
2013-01-09 02:11:00,34.7,29.0,30.22,West,271,1.0,4.0,79,0.00,,,0.00,weatherlink.com 1.10,2013-01-09 08:11:00,
2013-01-09 02:26:00,33.6,30.0,30.23,West,267,0.0,5.0,85,0.00,,,0.00,weatherlink.com 1.10,2013-01-09 08:26:00,
2013-01-09 02:41:00,32.4,28.0,30.23,West,273,2.0,2.0,82,0.00,,,0.00,weatherlink.com 1.10,2013-01-09 08:41:00,
2013-01-09 02:56:00,33.0,29.0,30.24,West,271,2.0,4.0,85,0.00,,,0.00,weatherlink.com 1.10,2013-01-09 08:56:00,
2013-01-09 03:11:00,33.5,30.0,30.24,West,269,2.0,4.0,85,0.00,,,0.00,weatherlink.com 1.10,2013-01-09 09:11:00,
2013-01-09 03:26:00,33.8,30.0,30.24,West,273,5.0,5.0,84,0.00,,,0.00,weatherlink.com 1.10,2013-01-09 09:26:00,
2013-01-09 03:41:00,32.6,28.0,30.25,NW,304,1.0,3.0,82,0.00,,,0.00,weatherlink.com 1.10,2013-01-09 09:41:00,
2013-01-09 03:56:00,29.8,26.0,30.25,West,266,1.0,3.0,85,0.00,,,0.00,weatherlink.com 1.10,2013-01-09 09:56:00,
2013-01-09 04:11:00,32.0,29.0,30.26,West,265,8.0,9.0,87,0.00,,,0.00,weatherlink.com 1.10,2013-01-09 10:11:00,
2013-01-09 04:26:00,34.4,30.0,30.27,West,267,7.0,11.0,83,0.00,,,0.00,weatherlink.com 1.10,2013-01-09 10:26:00,
2013-01-09 04:41:00,34.3,29.0,30.27,West,269,7.0,10.0,82,0.00,,,0.00,weatherlink.com 1.10,2013-01-09 10:41:00,
2013-01-09 04:56:00,33.4,29.0,30.28,WNW,289,7.0,10.0,84,0.00,,,0.00,weatherlink.com 1.10,2013-01-09 10:56:00,
2013-01-09 05:11:00,33.4,29.0,30.28,WNW,285,5.0,7.0,84,0.00,,,0.00,weatherlink.com 1.10,2013-01-09 11:11:00,
2013-01-09 05:27:00,31.4,27.0,30.29,WNW,284,2.0,3.0,84,0.00,,,0.00,weatherlink.com 1.10,2013-01-09 11:27:00,
2013-01-09 05:42:00,32.8,29.0,30.30,West,267,3.0,5.0,87,0.00,,,0.00,weatherlink.com 1.10,2013-01-09 11:42:00,
2013-01-09 05:57:00,32.8,28.0,30.30,West,269,1.0,3.0,81,0.00,,,0.00,weatherlink.com 1.10,2013-01-09 11:57:00,
2013-01-09 06:12:00,30.9,26.0,30.30,West,277,0.0,2.0,82,0.00,,,0.00,weatherlink.com 1.10,2013-01-09 12:12:00,
2013-01-09 06:27:00,31.7,29.0,30.30,WSW,242,4.0,7.0,88,0.00,,,0.00,weatherlink.com 1.10,2013-01-09 12:27:00,
2013-01-09 06:42:00,31.8,28.0,30.30,SW,231,4.0,5.0,86,0.00,,,0.00,weatherlink.com 1.10,2013-01-09 12:42:00,
2013-01-09 06:57:00,29.4,24.0,30.32,NE,34,2.0,2.0,81,0.00,,,0.00,weatherlink.com 1.10,2013-01-09 12:57:00,
2013-01-09 07:12:00,28.7,25.0,30.31,ENE,57,1.0,3.0,87,0.00,,,0.00,weatherlink.com 1.10,2013-01-09 13:12:00,
2013-01-09 07:27:00,28.6,25.0,30.32,NE,40,0.0,4.0,86,0.00,,,0.00,weatherlink.com 1.10,2013-01-09 13:27:00,
2013-01-09 07:42:00,26.1,22.0,30.33,NNE,13,0.0,1.0,84,0.00,,,0.00,weatherlink.com 1.10,2013-01-09 13:42:00,
2013-01-09 07:57:00,24.2,22.0,30.34,SW,236,2.0,3.0,89,0.00,,,0.00,weatherlink.com 1.10,2013-01-09 13:57:00,
2013-01-09 08:12:00,25.5,24.0,30.35,SSW,211,0.0,1.0,92,0.00,,,0.00,weatherlink.com 1.10,2013-01-09 14:12:00,
2013-01-09 08:27:00,24.8,22.0,30.36,SSW,211,0.0,0.0,88,0.00,,,0.00,weatherlink.com 1.10,2013-01-09 14:27:00,
2013-01-09 08:42:00,25.1,23.0,30.36,North,9,1.0,3.0,91,0.00,,,0.00,weatherlink.com 1.10,2013-01-09 14:42:00,
2013-01-09 08:57:00,24.6,22.0,30.39,North,5,0.0,0.0,90,0.00,,,0.00,weatherlink.com 1.10,2013-01-09 14:57:00,
2013-01-09 09:12:00,25.4,23.0,30.41,WSW,248,0.0,0.0,91,0.00,,,0.00,weatherlink.com 1.10,2013-01-09 15:12:00,
2013-01-09 09:27:00,26.6,24.0,30.41,WSW,248,0.0,0.0,89,0.00,,,0.00,weatherlink.com 1.10,2013-01-09 15:27:00,
2013-01-09 09:42:00,31.2,28.0,30.46,SW,223,6.0,8.0,89,0.00,,,0.00,weatherlink.com 1.10,2013-01-09 15:42:00,
2013-01-09 09:57:00,34.1,30.0,30.48,WSW,252,7.0,14.0,84,0.00,,,0.00,weatherlink.com 1.10,2013-01-09 15:57:00,
2013-01-09 10:12:00,35.7,31.0,30.50,SW,223,10.0,15.0,82,0.00,,,0.00,weatherlink.com 1.10,2013-01-09 16:12:00,
2013-01-09 10:27:00,37.1,31.0,30.51,WSW,238,6.0,14.0,80,0.00,,,0.00,weatherlink.com 1.10,2013-01-09 16:27:00,
2013-01-09 10:42:00,37.8,32.0,30.51,SW,232,6.0,10.0,80,0.00,,,0.00,weatherlink.com 1.10,2013-01-09 16:42:00,
2013-01-09 10:57:00,38.7,32.0,30.50,West,263,6.0,10.0,78,0.00,,,0.00,weatherlink.com 1.10,2013-01-09 16:57:00,
2013-01-09 11:12:00,38.8,33.0,30.50,West,280,5.0,7.0,78,0.00,,,0.00,weatherlink.com 1.10,2013-01-09 17:12:00,
2013-01-09 11:27:00,39.7,33.0,30.50,West,279,4.0,7.0,76,0.00,,,0.00,weatherlink.com 1.10,2013-01-09 17:27:00,
2013-01-09 11:43:00,40.2,33.0,30.50,WSW,254,5.0,5.0,76,0.00,,,0.00,weatherlink.com 1.10,2013-01-09 17:43:00,
2013-01-09 11:58:00,40.6,33.0,30.49,West,263,2.0,8.0,75,0.00,,,0.00,weatherlink.com 1.10,2013-01-09 17:58:00,
2013-01-09 12:13:00,40.0,33.0,30.48,NW,315,2.0,6.0,77,0.00,,,0.00,weatherlink.com 1.10,2013-01-09 18:13:00,
2013-01-09 12:28:00,39.1,33.0,30.48,WNW,300,0.0,3.0,78,0.00,,,0.00,weatherlink.com 1.10,2013-01-09 18:28:00,
2013-01-09 12:43:00,39.1,33.0,30.47,WNW,300,0.0,1.0,79,0.00,,,0.00,weatherlink.com 1.10,2013-01-09 18:43:00,
2013-01-09 12:58:00,39.0,33.0,30.46,WNW,301,0.0,2.0,80,0.00,,,0.00,weatherlink.com 1.10,2013-01-09 18:58:00,
2013-01-09 13:13:00,39.0,34.0,30.47,WNW,301,0.0,2.0,81,0.00,,,0.00,weatherlink.com 1.10,2013-01-09 19:13:00,
2013-01-09 13:28:00,40.5,34.0,30.47,WNW,301,0.0,0.0,78,0.00,,,0.00,weatherlink.com 1.10,2013-01-09 19:28:00,
2013-01-09 13:43:00,41.5,34.0,30.46,WNW,301,0.0,0.0,76,0.00,,,0.00,weatherlink.com 1.10,2013-01-09 19:43:00,
2013-01-09 13:58:00,42.1,34.0,30.46,WNW,301,0.0,0.0,74,0.00,,,0.00,weatherlink.com 1.10,2013-01-09 19:58:00,
2013-01-09 14:13:00,41.7,33.0,30.45,WNW,291,2.0,4.0,72,0.00,,,0.00,weatherlink.com 1.10,2013-01-09 20:13:00,
2013-01-09 14:28:00,41.8,34.0,30.45,West,263,1.0,3.0,73,0.00,,,0.00,weatherlink.com 1.10,2013-01-09 20:28:00,
2013-01-09 14:43:00,41.9,33.0,30.46,WSW,254,1.0,3.0,71,0.00,,,0.00,weatherlink.com 1.10,2013-01-09 20:43:00,
2013-01-09 14:58:00,40.7,33.0,30.45,WNW,283,0.0,2.0,73,0.00,,,0.00,weatherlink.com 1.10,2013-01-09 20:58:00,
2013-01-09 15:13:00,40.0,33.0,30.45,WNW,283,0.0,2.0,76,0.00,,,0.00,weatherlink.com 1.10,2013-01-09 21:13:00,
2013-01-09 15:28:00,39.5,33.0,30.46,WNW,283,0.0,2.0,77,0.00,,,0.00,weatherlink.com 1.10,2013-01-09 21:28:00,
2013-01-09 15:43:00,39.4,32.0,30.46,WNW,283,0.0,0.0,76,0.00,,,0.00,weatherlink.com 1.10,2013-01-09 21:43:00,
2013-01-09 15:58:00,39.6,33.0,30.46,WNW,283,0.0,0.0,76,0.00,,,0.00,weatherlink.com 1.10,2013-01-09 21:58:00,
2013-01-09 16:13:00,38.2,32.0,30.46,WNW,284,0.0,0.0,78,0.00,,,0.00,weatherlink.com 1.10,2013-01-09 22:13:00,
2013-01-09 16:28:00,37.3,31.0,30.44,WNW,284,0.0,0.0,79,0.00,,,0.00,weatherlink.com 1.10,2013-01-09 22:28:00,
2013-01-09 16:43:00,35.8,30.0,30.44,WNW,283,0.0,0.0,80,0.00,,,0.00,weatherlink.com 1.10,2013-01-09 22:43:00,
2013-01-09 16:58:00,34.4,29.0,30.44,WNW,284,0.0,0.0,82,0.00,,,0.00,weatherlink.com 1.10,2013-01-09 22:58:00,
2013-01-09 17:13:00,33.5,30.0,30.45,WNW,283,0.0,0.0,85,0.00,,,0.00,weatherlink.com 1.10,2013-01-09 23:13:00,
2013-01-09 17:28:00,32.4,28.0,30.44,WNW,284,0.0,0.0,85,0.00,,,0.00,weatherlink.com 1.10,2013-01-09 23:28:00,
2013-01-09 17:43:00,31.5,28.0,30.45,WNW,283,0.0,0.0,87,0.00,,,0.00,weatherlink.com 1.10,2013-01-09 23:43:00,
2013-01-09 17:58:00,30.6,27.0,30.45,WNW,284,0.0,0.0,87,0.00,,,0.00,weatherlink.com 1.10,2013-01-09 23:58:00,
2013-01-09 18:13:00,29.8,27.0,30.45,WNW,284,0.0,0.0,88,0.00,,,0.00,weatherlink.com 1.10,2013-01-10 00:13:00,
2013-01-09 18:28:00,29.4,27.0,30.46,WNW,284,0.0,0.0,90,0.00,,,0.00,weatherlink.com 1.10,2013-01-10 00:28:00,
2013-01-09 18:43:00,28.7,26.0,30.46,WNW,283,0.0,0.0,89,0.00,,,0.00,weatherlink.com 1.10,2013-01-10 00:43:00,
2013-01-09 19:13:00,28.5,26.0,30.46,WNW,284,0.0,0.0,91,0.00,,,0.00,weatherlink.com 1.10,2013-01-10 01:13:00,
2013-01-09 19:28:00,29.0,27.0,30.46,WNW,284,0.0,0.0,93,0.00,,,0.00,weatherlink.com 1.10,2013-01-10 01:28:00,
2013-01-09 19:43:00,30.5,28.0,30.46,SSE,165,0.0,1.0,90,0.00,,,0.00,weatherlink.com 1.10,2013-01-10 01:43:00,
2013-01-09 19:58:00,30.6,28.0,30.47,SSE,165,0.0,0.0,89,0.00,,,0.00,weatherlink.com 1.10,2013-01-10 01:58:00,
2013-01-09 20:13:00,31.9,29.0,30.46,East,98,1.0,2.0,88,0.00,,,0.00,weatherlink.com 1.10,2013-01-10 02:13:00,
2013-01-09 20:28:00,31.4,28.0,30.45,East,98,0.0,0.0,88,0.00,,,0.00,weatherlink.com 1.10,2013-01-10 02:28:00,
2013-01-09 20:43:00,32.6,30.0,30.45,East,92,0.0,2.0,88,0.00,,,0.00,weatherlink.com 1.10,2013-01-10 02:43:00,
2013-01-09 20:58:00,33.2,30.0,30.45,East,92,0.0,1.0,86,0.00,,,0.00,weatherlink.com 1.10,2013-01-10 02:58:00,
2013-01-09 21:13:00,32.4,28.0,30.45,East,92,0.0,0.0,85,0.00,,,0.00,weatherlink.com 1.10,2013-01-10 03:13:00,
2013-01-09 21:28:00,31.3,28.0,30.45,East,92,0.0,0.0,86,0.00,,,0.00,weatherlink.com 1.10,2013-01-10 03:28:00,
2013-01-09 21:43:00,30.8,28.0,30.45,ESE,119,1.0,2.0,89,0.00,,,0.00,weatherlink.com 1.10,2013-01-10 03:43:00,
2013-01-09 21:58:00,31.5,28.0,30.46,SE,128,4.0,4.0,88,0.00,,,0.00,weatherlink.com 1.10,2013-01-10 03:58:00,
2013-01-09 22:13:00,34.6,31.0,30.46,SE,142,5.0,9.0,85,0.00,,,0.00,weatherlink.com 1.10,2013-01-10 04:13:00,
2013-01-09 22:28:00,35.2,31.0,30.46,SE,128,4.0,7.0,83,0.00,,,0.00,weatherlink.com 1.10,2013-01-10 04:28:00,
2013-01-09 22:58:00,33.7,29.0,30.45,SE,129,3.0,5.0,84,0.00,,,0.00,weatherlink.com 1.10,2013-01-10 04:58:00,
2013-01-09 23:12:00,34.3,29.0,30.46,SE,127,2.0,6.0,82,0.00,,,0.00,weatherlink.com 1.10,2013-01-10 05:12:00,
2013-01-09 23:28:00,33.6,29.0,30.46,SE,131,1.0,3.0,83,0.00,,,0.00,weatherlink.com 1.10,2013-01-10 05:28:00,
2013-01-09 23:58:00,32.6,28.0,30.45,SE,124,1.0,3.0,83,0.00,,,0.00,weatherlink.com 1.10,2013-01-10 05:58:00,